Location: Greifenstein
(49.8748°N, 11.1729°E)
Time: 04:55:18
(UTC+00:00)

Daily predictions for brighter satellites

Satellite Brightness Start Highest point End
(mag) Time Altitude Azimuth Time Altitude Azimuth Time Altitude Azimuth
Cosmos 1943 4.5 03:19:35 34° ESE 03:19:35 34° ESE 03:22:50 10° SE
ATLAS 5 CENTAUR R/B 4.1 03:29:17 17° NNE 03:29:17 17° NNE 03:30:40 10° NE
CZ-4C R/B 4.2 03:43:05 26° SSW 03:43:05 26° SSW 03:46:52 10° S
Cosmos 2026 Rocket 4.3 03:50:20 15° N 03:55:28 64° ENE 04:01:41 10° SSE
Geosat 4.2 03:57:35 10° SE 04:02:34 66° NE 04:02:59 63° NNE
Cosmos 2263 Rocket 2.1 04:12:52 45° SSW 04:14:40 83° ESE 04:20:16 10° NNE
Cosmos 1420 Rocket 3.8 04:15:56 75° SSW 04:16:24 88° WNW 04:21:38 10° NNE
GEOS 3 Rocket 3.4 04:11:25 10° SE 04:16:32 79° SW 04:16:45 77° W
SKYMED 2 3.7 04:14:00 10° SSE 04:17:58 72° SE 04:17:58 72° SE
Cosmos 1634 Rocket 4.0 04:15:47 10° S 04:21:58 82° E 04:28:11 10° N
Meteor 1-20 Rocket 4.2 04:19:36 10° SSW 04:25:28 84° WNW 04:31:20 10° N
USA 234 3.4 04:19:42 10° ENE 04:26:15 73° SE 04:30:18 25° SW
Cosmos 2034 Rocket 4.5 04:29:07 41° NW 04:29:07 41° NW 04:34:01 10° N
Cosmos 1627 Rocket 4.4 04:24:47 16° NNW 04:29:50 72° W 04:36:08 10° S
Cosmos 1741 Rocket 3.8 04:30:24 61° WNW 04:31:11 72° WSW 04:36:22 10° SSE
FENGYUN 3A 4.3 04:26:18 10° NNE 04:31:37 55° E 04:36:52 10° S
Cosmos 2195 Rocket 4.4 04:28:47 20° NNW 04:33:18 64° W 04:39:32 10° S
ATLAS CENTAUR R/B 2.8 04:36:18 27° N 04:37:33 32° NE 04:41:13 10° E
Cosmos 2297 Rocket 4.1 04:39:42 15° NNW 04:39:42 15° NNW 04:41:44 10° N
SJ-12 4.0 04:34:38 10° NNE 04:38:47 75° ESE 04:42:53 10° S
METEOR-M 4.4 04:36:22 10° NNE 04:41:43 68° ESE 04:47:02 10° S
Cosmos 1655 Rocket 4.2 04:35:32 10° N 04:41:45 70° ENE 04:47:57 10° SSE
Cosmos 1484 Rocket 3.9 04:38:28 10° N 04:47:46 - SSW 04:40:45 33° N
Cosmos 2227 4.3 04:41:22 45° W 04:42:35 53° NW 04:48:15 10° NNE
Cosmos 2227 Rocket 4.0 04:44:30 15° NNW 04:44:30 15° NNW 04:46:43 10° N
Cosmos 1092 Rocket 4.2 04:43:00 39° WNW 04:44:22 44° W 04:50:07 10° SSW
Cosmos 1844 Rocket 4.2 04:41:38 10° S 04:46:40 36° ESE 04:51:44 10° NE
Cosmos 1452 Rocket 3.4 04:43:54 22° SW 04:47:17 65° WNW 04:52:34 10° NNE
USA 116 4.2 04:44:03 10° SSE 04:48:44 82° WSW 04:52:59 15° NNW
Timation 1 Rocket 4.2 04:43:58 13° SW 04:49:15 73° WNW 04:55:15 10° NNE
Cosmos 1850 Rocket 4.2 04:48:20 43° WNW 04:49:25 50° WSW 04:54:33 10° S
Cosmos 2142 Rocket 4.4 04:44:17 10° SSW 04:50:42 82° W 04:57:07 10° N
CZ-4B R/B 3.9 04:45:30 10° NNE 04:51:03 58° ESE 04:56:37 10° S
Okean 3 3.3 04:49:18 26° N 04:51:37 89° ESE 04:55:49 10° S
Cosmos 44 3.5 04:46:57 10° SSW 04:51:37 64° SE 04:56:05 10° NE
Cosmos 371 Rocket 3.9 04:51:21 10° S 04:56:07 59° ESE 05:00:56 10° NNE
Meteor 1-18 Rocket 4.4 04:54:06 31° NW 04:56:21 46° W 05:01:38 10° SSW
ALOS 2.2 04:53:15 10° NNE 04:57:57 86° WNW 05:02:38 10° SSW
Meteor 2-13 Rocket 4.4 04:52:44 10° N 04:58:55 87° W 05:05:05 10° S
PSLV R/B 4.0 04:55:59 10° N 05:00:00 52° WNW 05:04:00 10° SSW
Cosmos 1943 4.2 05:01:28 26° WSW 05:01:28 26° WSW 05:05:29 10° SSW
NOAA 6 4.2 04:57:23 10° NNE 05:02:32 73° ESE 05:07:39 10° S
Orbus 7S? 4.2 05:02:26 14° SSW 05:04:13 30° SE 05:06:34 10° ENE
COSMO-SKYMED 1 3.1 05:02:31 10° SSW 05:06:30 35° W 05:06:31 35° W
Cosmos 1536 4.3 05:02:50 10° SSE 05:06:38 39° E 05:10:26 10° NNE
SL-23 DEB 3.7 05:10:00 30° SW 05:11:20 61° SSE 05:14:44 10° ENE
ATLAS 5 CENTAUR R/B 3.5 05:10:50 18° NNW 05:12:03 19° N 05:15:51 10° NE
H-2A R/B 4.4 05:08:45 10° NNE 05:12:14 35° E 05:15:44 10° SSE
Cosmos 2082 Rocket 4.1 05:08:59 10° NNW 05:13:25 23° NE 05:17:50 10° E
Cosmos 2221 Rocket 3.9 05:13:26 26° NW 05:15:24 42° W 05:19:34 10° SSW
CZ-2C R/B 4.4 05:12:47 10° NNW 05:13:04 11° NNW 05:13:04 11° NNW
MOS 1-B 4.3 05:13:12 10° N 05:18:52 58° WNW 05:24:30 10° SW
Cosmos 405 2.8 05:17:01 19° NNW 05:19:28 78° W 05:22:58 10° S
Cosmos 1733 Rocket 2.9 05:16:35 10° S 05:20:54 86° W 05:25:16 10° N
Meteor 1-11 Rocket 4.1 05:16:06 10° S 05:21:50 71° E 05:27:44 10° NNE
PAYLOAD B 4.2 05:16:35 10° N 05:22:04 66° WNW 05:27:33 10° SSW
Helios 1A Rocket 2.7 05:20:10 10° N 05:24:12 72° WNW 05:28:12 10° SSW
Cosmos 2266 Rocket 3.9 05:18:52 10° N 05:25:08 85° W 05:31:15 10° S
Okean O Rocket 1.5 05:22:11 10° N 05:26:32 65° WNW 05:30:54 10° SSW
Cosmos 1340 3.4 05:24:35 10° SW 05:27:57 30° WNW 05:31:21 10° N
USA 238 DEB 4.3 05:21:24 10° SSW 05:27:57 60° SE 05:34:45 10° NE
USA 238 4.3 05:21:32 10° SSW 05:28:04 60° SE 05:34:51 10° NE
Cosmos 1346 Rocket 3.3 05:24:40 10° SW 05:28:13 34° WNW 05:31:49 10° N
Cosmos 1331 Rocket 3.9 05:25:17 10° SSW 05:30:27 81° WNW 05:35:41 10° NNE
Cosmos 2180 Rocket 4.4 05:25:48 10° SSW 05:31:52 64° WNW 05:38:03 10° N
Cosmos 1500 3.1 05:33:09 10° SSW 05:36:57 62° WNW 05:40:45 10° N
Meteor 1-5 Rocket 4.3 05:34:45 10° SSW 05:40:40 73° WNW 05:46:29 10° N
Meteor 2-4 Rocket 4.1 05:37:30 10° NNW 05:42:35 39° W 05:47:31 10° SSW
Cosmos 1110 Rocket 4.0 05:40:21 10° SW 05:45:26 57° WNW 05:50:34 10° NNE
Cosmos 1674 Rocket 3.8 05:43:51 10° NNW 05:48:01 47° W 05:52:10 10° SSW
Okean-O 3.8 05:45:00 10° NNE 05:49:17 47° E 05:53:33 10° S
Cosmos 1975 Rocket 3.9 05:45:00 10° N 05:49:22 53° ENE 05:53:45 10° SSE
Cosmos 1066 Rocket 4.2 05:46:23 10° NNW 05:52:00 88° ENE 05:57:27 10° S
IRIDIUM 104 4.3 05:47:06 10° N 05:52:20 73° W 05:57:31 10° S
YAOGAN 6 4.4 05:48:54 10° NNE 05:52:21 36° E 05:55:47 10° SSE
ADEOS Rocket 3.1 05:46:55 10° S 05:53:44 74° WSW 05:59:52 10° NNW
Cosmos 304 Rocket 3.8 05:49:53 10° SSW 05:54:40 90° ENE 05:59:30 10° NNE
Cosmos 2278 Rocket 4.3 05:50:03 10° SSE 05:54:59 32° ESE 05:59:55 10° NE
Cosmos 2279 Rocket 4.5 05:49:58 10° SW 05:55:39 37° WNW 06:01:24 10° N
Cosmos 2263 Rocket 3.2 05:54:50 10° W 05:59:17 24° NW 06:03:45 10° NNE
Cosmos 1486 Rocket 4.0 05:55:27 10° NNW 06:00:44 68° WSW 06:05:56 10° S
IRIDIUM 114 4.4 05:56:16 10° N 06:01:26 61° W 06:06:33 10° SSW
CZ-2C R/B 3.8 05:57:04 10° S 06:01:49 77° WSW 06:06:38 10° NNW
Cosmos 1441 Rocket 4.1 05:59:11 10° S 06:03:03 55° E 06:06:55 10° NNE
Cosmos 1378 Rocket 4.0 06:01:23 10° NNW 06:05:35 43° W 06:09:47 10° SSW
USA 81 4.1 06:01:48 10° NNW 06:07:00 59° W 06:12:09 10° SSW
USA 234 3.4 06:02:49 10° ENE 06:09:11 58° NNW 06:15:34 10° W
FENGYUN 3A 4.5 06:07:09 10° N 06:11:39 28° WNW 06:16:07 10° WSW
Envisat 3.3 06:08:21 10° NNE 06:13:28 75° ESE 06:18:32 10° S
Cosmos 1833 Rocket 3.0 06:09:29 10° NNW 06:15:08 68° ENE 06:20:46 10° SE
Cosmos 332 Rocket 4.3 06:11:33 10° SW 06:16:08 39° WNW 06:20:45 10° NNE
ATLAS CENTAUR R/B 1.8 06:12:36 10° NW 06:16:38 44° WSW 06:20:21 10° SSE
AQUARIUS 4.2 06:13:40 10° N 06:18:06 58° WNW 06:22:30 10° SSW
NOSS 3-2 (C) 3.8 06:12:49 10° SSW 06:18:37 71° SE 06:25:15 10° NE
Meteor 1-4 Rocket 4.0 06:15:20 10° N 06:18:53 39° ENE 06:22:21 10° SE
ATLAS 3B R/B 3.8 06:14:10 10° SSW 06:20:36 50° ESE 06:26:59 10° NE
Cosmos 1666 2.9 06:17:22 10° SSW 06:21:03 47° WNW 06:24:45 10° N
Cosmos 1378 3.6 06:17:20 10° N 06:21:03 63° ENE 06:24:47 10° SSE
NOAA 12 4.1 06:16:15 10° NNE 06:21:32 88° WNW 06:26:46 10° SSW
CZ-4 R/B 2.3 06:18:21 10° NNE 06:22:11 51° E 06:26:02 10° S
SMAP 3.3 06:19:28 10° N 06:23:59 49° WNW 06:28:27 10° SW
Aureole 2 4.3 06:25:07 10° NNW 06:28:40 71° WSW 06:31:46 10° SSE
COSMOS 2406 3.4 06:23:37 10° NW 06:29:12 56° WSW 06:34:43 10° S
SAR-Lupe-2 3.9 06:26:00 10° S 06:29:28 46° W 06:32:58 10° NNW
Cosmos 1844 Rocket 3.0 06:25:09 10° SW 06:30:28 45° NW 06:35:50 10° NNE
CZ-4B R/B 4.1 06:26:35 10° N 06:31:17 28° WNW 06:35:59 10° WSW
Radarsat Rocket 4.5 06:26:24 10° N 06:32:15 45° WNW 06:38:42 10° SW
